Location: Macksville High School
(37.9611°N, 99.9654°W)
Time: 01:35:11
(UTC+00:00)

SJ 16-02 - Pass Details

Date: 17 January 2021
Orbit: 606 x 616 km, 75.0° (Epoch: 07 March)

Event Time Altitude Azimuth Distance (km) Brightness Sun altitude
Exits shadow 12:05:02 27° 349° (N) 1,180 2.6 -21.2°
Maximum altitude 12:07:23 78° 73° (ENE) 624 1.4 -20.7°
Drops below altitude 10° 12:11:44 10° 160° (SSE) 1,948 4.3 -19.9°
Sets 12:13:57 0° 161° (SSE) 2,848 5.2 -19.4°
